User: anonymous   Login
Location: Kosice
(0.0000°N, 21.2500°E)
Time: 05:32:23
(UTC+02:00)
Language:

Meteor 2-15 - Orbit

View from above orbital plane
View from above orbital plane
View from above satellite
View from above satellite

Ground track
Ground track

The orbit data is extracted from the following two-line orbital elements,

1 17290U 87001A   21107.42796399  .00000036  00000-0  18787-4 0  9999
2 17290  82.4689 173.0206 0014394  69.9466 290.3242 13.85056375732634
Epoch (UTC): 17 April 2021 10:16:16
Eccentricity: 0.0014394
inclination: 82.4689°
perigee height: 935 km
apogee height: 956 km
right ascension of ascending node: 173.0206°
argument of perigee: 69.9466°
revolutions per day: 13.85056375
mean anomaly at epoch: 290.3242°
orbit number at epoch: 73263

The dashed part of the orbit path shows where the satellite is in the earth's shadow,  

DLR